Wind_Speed
7 7 7 7 7 7 8 8 8 8 8 8 8 8 8 9 9 9 9 9 9 9 9 9 9 9 9 9 8 8 8 8 7 5 5 7 6 6 6 6 6 6 6 5 5 4 5 5 5 5 5 4 4 4 6 6 6 9 10 13 13 10 9 7 6 9 14 17 20 23 24 26 24 22 21 20 19 17 19 19 18 17 17 17 17 16 15 15
8 8 8 8 9 9 9 9 9 9 9 9 9 9 10 10 10 11 11 11 11 10 11 11 11 11 11 11 10 10 10 10 9 5 6 9 8 8 8 8 8 7 7 7 7 7 7 7 6 6 7 6 6 6 7 7 8 9 12 15 12 10 11 10 10 13 17 20 22 25 25 27 26 23 22 22 20 19 22 21 19 18 17 19 19 19 19 18
10 10 10 10 10 10 10 10 11 11 11 11 11 11 11 11 12 12 12 12 12 12 12 12 12 13 12 12 12 12 12 11 10 7 9 12 10 10 10 9 9 9 9 9 9 9 9 10 9 8 8 7 7 8 8 9 10 11 14 16 11 11 14 13 13 16 19 22 23 25 26 27 27 26 24 23 22 22 22 20 20 20 18 19 21 21 22 20
12 12 11 11 11 11 11 11 12 12 12 12 12 12 12 13 13 13 13 14 14 14 14 14 14 14 14 14 14 13 13 13 11 9 11 12 11 11 12 11 11 11 11 10 10 11 11 12 12 11 11 9 10 11 10 9 11 14 16 15 12 13 18 15 15 19 20 22 23 24 26 27 26 27 26 23 25 21 16 17 19 21 19 21 23 23 23 21
14 14 13 13 13 13 12 13 13 13 14 14 14 14 14 14 14 14 14 14 15 15 15 15 16 16 16 15 15 15 14 12 9 8 9 9 10 11 12 13 13 13 13 13 12 13 13 14 13 13 14 12 12 14 13 11 13 17 17 15 14 16 19 17 17 20 20 21 22 23 25 26 27 28 26 26 26 18 13 16 20 22 21 23 24 23 22 20
16 15 15 15 15 15 14 14 14 14 15 15 15 15 15 15 16 16 15 15 16 16 16 16 17 17 17 17 16 16 15 12 9 9 10 10 12 12 14 14 15 15 15 15 14 15 15 15 15 14 15 15 14 15 15 15 17 21 19 15 16 18 21 19 19 21 21 22 23 24 26 27 27 28 27 28 27 18 16 19 20 23 24 25 25 23 21 19
17 17 17 17 17 17 16 17 16 16 16 16 17 17 17 17 17 18 17 17 17 17 17 17 18 18 19 19 18 18 17 14 13 15 14 14 15 14 15 16 17 17 17 17 16 17 17 17 17 16 17 17 16 15 16 18 19 23 20 17 18 20 22 21 21 23 23 25 25 25 27 27 27 27 28 28 25 20 19 20 20 22 24 26 26 25 23 21
18 18 18 18 18 18 18 18 18 18 18 18 19 19 19 19 19 19 19 20 19 19 19 19 20 20 20 20 20 20 18 16 16 17 16 16 17 16 17 17 18 18 18 18 18 18 18 18 18 18 20 19 17 16 17 19 21 23 21 19 20 22 23 22 23 24 24 25 26 27 27 26 26 28 29 25 20 19 19 19 20 21 23 26 27 27 27 25
19 20 20 20 19 19 20 20 20 20 20 20 20 20 21 21 21 21 21 21 21 21 21 21 22 22 22 22 22 22 18 16 17 17 17 16 16 16 17 17 18 19 19 19 19 20 20 19 19 21 22 20 20 19 18 21 23 23 22 22 23 23 23 24 24 24 25 26 27 28 26 23 25 29 29 21 15 15 17 19 20 22 24 25 26 27 28 28
20 20 20 21 21 21 21 21 21 21 21 21 21 21 22 22 23 23 23 23 23 23 24 24 24 24 25 24 26 24 18 17 18 18 19 18 17 17 17 18 19 20 20 20 20 21 20 20 21 22 23 23 23 22 21 23 25 24 24 25 25 24 25 25 26 24 25 27 27 28 25 22 24 29 28 19 14 15 18 22 22 23 24 24 26 26 27 27
21 21 21 21 21 22 22 22 22 22 22 22 22 22 23 23 24 24 24 25 25 25 25 26 26 27 27 27 28 26 21 21 21 20 21 20 19 19 19 20 20 20 21 21 22 22 22 22 23 23 24 24 25 24 24 25 27 26 26 27 26 27 28 27 27 23 23 25 24 26 26 24 24 29 27 19 15 18 20 23 23 24 25 25 28 27 28 28
22 22 22 22 23 23 23 23 23 23 23 23 23 23 23 24 25 25 25 25 27 27 27 28 29 29 30 30 29 27 25 25 24 23 23 22 22 21 21 21 22 22 23 23 23 24 23 24 25 25 25 26 27 27 26 27 27 26 26 30 30 31 31 27 25 21 22 25 23 23 26 27 27 27 26 18 15 18 20 23 25 26 27 27 29 29 30 30
24 24 24 24 24 24 24 24 24 24 24 24 24 24 24 25 25 26 26 26 27 28 29 29 30 31 32 32 28 28 28 27 26 26 25 24 24 24 23 23 24 24 24 25 25 26 26 26 27 28 27 28 29 29 30 30 29 29 30 33 34 35 35 26 22 23 23 25 25 22 25 32 32 28 25 20 17 19 23 26 27 29 30 30 30 31 32 31
27 27 26 26 26 26 26 25 25 26 25 25 25 25 26 26 26 27 26 27 28 29 30 31 32 32 34 33 29 29 30 29 28 27 26 26 26 26 25 25 25 25 26 26 26 27 28 29 29 29 29 29 30 31 34 34 33 33 33 35 36 37 37 28 23 27 26 26 28 22 25 35 36 29 27 25 23 25 28 30 30 30 31 32 33 33 35 33
28 28 28 28 28 29 28 27 27 27 27 27 26 27 27 27 28 28 28 28 29 30 30 31 33 34 36 34 31 31 30 29 28 26 26 26 26 27 27 27 28 28 28 27 27 28 29 31 32 31 30 30 30 33 37 36 34 34 34 37 38 38 38 33 28 30 27 25 28 24 26 36 40 33 31 30 30 32 33 34 34 34 33 34 35 36 37 36
28 28 29 29 30 30 29 30 30 29 29 29 28 28 28 28 29 29 30 30 31 32 31 32 33 34 37 35 31 30 29 28 27 25 26 26 26 26 27 28 29 29 29 29 29 29 31 33 33 33 32 30 32 36 37 34 36 37 37 39 39 38 36 35 35 35 32 28 29 28 29 38 43 38 36 35 36 36 37 38 37 37 37 37 37 37 38 37
26 26 27 28 29 30 30 30 31 31 31 30 30 30 30 30 30 30 31 31 33 33 33 35 35 36 38 35 32 30 28 27 26 26 25 25 25 25 27 29 30 31 31 31 31 32 34 34 34 33 32 31 34 37 31 30 38 41 39 38 37 35 33 37 41 39 36 32 31 31 34 41 45 41 39 37 36 38 39 39 40 41 40 39 38 37 36 34
25 25 26 26 27 27 28 29 30 31 31 31 32 32 31 32 32 33 33 33 34 34 35 38 37 38 38 33 30 29 26 25 24 23 23 23 24 24 26 28 30 32 33 34 34 36 35 34 35 33 32 34 38 40 35 35 42 43 39 36 35 35 35 39 44 41 38 35 34 34 39 46 49 45 42 38 35 38 40 40 42 43 42 40 38 36 34 31
26 26 25 25 26 26 26 27 27 28 29 30 31 32 33 34 35 35 35 35 35 35 36 38 37 38 37 33 31 31 30 28 28 28 27 28 28 28 28 29 32 33 34 35 36 37 35 34 35 33 35 40 42 44 44 43 43 42 39 37 37 37 37 42 45 42 38 37 38 40 45 50 52 49 46 41 36 38 41 42 44 45 44 40 36 33 31 29
28 28 27 26 26 26 26 26 26 26 27 27 28 29 30 32 34 35 36 36 36 36 36 38 40 40 39 37 36 35 35 34 33 31 31 32 32 32 32 33 36 37 36 37 38 37 35 37 39 39 40 42 42 42 43 43 40 39 37 38 40 38 40 46 46 43 40 39 43 46 50 53 53 53 50 44 40 41 44 44 46 47 43 38 35 33 29 25
29 29 29 28 28 27 27 27 27 26 27 27 26 27 28 30 33 34 36 37 36 35 37 38 40 42 41 39 38 37 36 37 36 33 33 34 33 34 35 37 40 41 39 38 38 39 41 44 45 44 43 41 39 40 40 41 40 38 38 40 42 40 45 50 46 45 43 43 48 50 51 53 53 55 52 46 44 45 45 45 46 44 39 36 35 32 27 23
31 31 30 30 30 29 28 28 28 27 28 27 27 27 28 30 32 34 38 41 38 35 37 38 39 43 42 38 39 38 38 39 38 37 35 34 35 37 38 40 42 43 40 38 40 43 46 49 48 45 41 39 39 40 41 42 41 39 39 42 43 42 47 51 47 47 45 44 49 49 49 52 53 56 54 50 49 47 45 44 43 40 37 36 33 30 28 24
32 32 31 31 31 31 30 30 29 29 29 28 28 28 29 30 32 34 38 44 44 37 36 37 38 41 39 38 39 38 40 42 40 39 35 34 38 39 40 43 44 44 43 42 44 47 48 48 47 42 38 37 40 40 38 38 40 41 41 43 45 44 45 49 50 49 47 47 48 49 51 55 55 56 55 51 49 46 42 41 41 40 38 34 31 29 26 22
33 32 32 32 32 32 32 31 31 30 30 29 29 28 29 31 32 35 38 45 49 45 40 38 39 40 38 36 37 37 41 43 42 41 37 36 39 39 42 44 44 46 46 45 47 51 53 49 46 44 41 40 42 42 39 37 41 46 47 46 48 49 47 50 51 49 50 49 48 48 48 54 55 51 52 46 40 40 41 42 44 40 36 33 31 27 21 18
31 31 32 32 32 33 32 32 31 31 31 30 29 29 30 31 32 35 38 44 51 50 44 39 39 38 35 33 36 37 41 43 43 42 40 40 40 40 43 43 44 48 46 44 48 54 53 47 45 46 44 42 43 45 40 37 43 51 52 48 48 50 47 48 46 43 44 42 43 38 28 36 41 37 41 40 36 42 43 43 42 37 34 32 28 24 20 18
27 28 29 30 30 32 32 32 31 31 30 29 29 29 29 30 31 33 37 42 49 48 39 30 27 28 28 26 27 29 35 40 39 38 40 41 41 42 44 45 47 48 46 44 45 50 50 45 44 44 43 41 39 40 39 37 42 50 50 45 45 46 44 44 41 37 35 32 33 26 15 24 40 42 42 40 40 43 41 39 39 38 36 28 21 21 20 19
29 29 30 30 29 30 30 31 30 30 29 28 28 28 28 28 28 30 32 31 32 30 20 11 9 14 17 13 13 17 25 29 26 26 30 32 35 40 44 48 48 47 47 42 40 45 46 43 42 41 40 38 36 37 38 36 39 47 48 43 42 42 41 41 38 34 35 36 35 28 20 24 44 53 46 38 34 33 35 39 41 37 30 22 21 22 18 18
34 34 33 33 31 30 30 29 29 28 27 26 27 25 24 24 24 25 21 12 12 15 11 7 8 11 12 10 12 17 22 26 23 21 22 21 26 31 36 42 44 48 48 43 43 48 45 41 41 38 32 32 37 40 38 34 37 44 45 42 42 40 40 39 37 34 33 35 32 24 17 16 37 55 44 31 27 24 31 36 34 28 22 21 25 20 16 23
35 35 35 35 34 31 31 30 28 27 27 27 26 24 24 22 22 22 13 7 11 14 13 14 14 13 14 14 16 20 22 25 25 24 23 21 23 26 30 33 36 42 45 45 50 50 45 44 44 39 34 38 42 41 39 36 37 41 41 41 40 36 36 34 34 34 28 26 21 12 10 8 32 55 38 24 26 26 30 27 21 20 22 24 22 17 22 32
35 35 35 36 36 32 33 32 28 28 29 29 28 27 26 24 23 16 8 12 16 16 19 20 16 14 16 16 17 19 21 23 25 26 25 25 25 27 30 31 31 36 39 42 47 46 43 45 47 43 41 44 43 39 40 38 38 40 38 39 37 34 35 31 31 28 18 18 19 16 17 14 21 30 16 14 22 20 18 17 16 19 22 20 16 24 35 35
36 37 37 38 36 34 36 34 29 30 29 29 29 28 26 24 20 10 9 20 23 21 23 20 14 13 14 16 18 20 22 24 25 25 26 27 28 31 32 32 32 33 36 40 43 42 40 42 45 45 45 45 42 41 42 40 39 39 36 36 32 26 24 19 18 14 7 11 14 14 19 19 22 17 7 4 7 6 11 20 25 26 22 17 18 33 38 28
37 37 38 39 38 37 37 35 34 33 31 31 30 28 25 17 15 21 25 24 15 9 11 9 8 10 11 13 17 18 20 24 24 24 26 28 30 34 35 34 33 29 30 36 37 37 41 43 41 41 42 41 39 41 41 40 41 40 38 33 20 10 9 6 4 3 7 15 16 13 11 21 39 39 24 20 19 21 26 27 28 27 23 22 25 31 31 27
36 35 36 38 39 39 38 36 37 36 34 33 30 30 25 10 15 35 39 29 16 11 15 16 18 21 21 23 23 21 21 24 24 23 26 29 32 36 36 37 37 31 29 32 31 30 33 39 40 38 37 36 36 39 39 38 38 39 40 33 18 6 1 3 4 3 9 19 22 20 16 21 35 36 29 30 28 25 26 24 28 31 29 29 27 26 30 30
36 36 36 37 39 40 39 38 37 36 34 32 30 29 21 14 24 38 34 29 29 28 30 32 32 32 30 29 28 26 26 27 27 27 28 32 35 38 38 39 39 38 37 35 33 27 22 30 40 37 32 35 37 36 34 33 32 36 37 31 26 19 8 4 6 6 6 13 17 13 13 17 24 21 20 23 21 23 30 32 36 35 29 26 24 25 29 25
38 38 38 39 40 40 40 39 38 36 33 32 32 28 24 27 37 38 29 26 27 29 31 32 32 32 32 32 31 30 29 29 30 31 31 35 38 39 39 39 36 38 38 33 33 31 25 34 47 41 34 38 37 33 33 28 27 34 31 26 29 30 24 17 18 20 11 10 14 13 16 30 40 39 42 41 38 37 32 28 28 27 23 23 25 25 23 19
40 40 40 42 42 39 39 40 39 36 33 33 33 32 35 41 43 37 31 25 21 22 25 26 28 31 31 29 28 26 25 27 30 32 34 36 38 39 41 41 38 38 39 36 36 32 27 34 46 41 34 34 31 30 31 28 26 28 25 27 30 32 33 26 20 25 17 8 18 21 20 35 44 43 39 29 20 17 13 15 20 23 23 22 21 18 15 16
41 41 42 43 42 40 39 39 38 38 34 32 35 38 43 48 47 44 39 34 31 27 24 24 26 28 25 22 23 23 21 23 28 31 33 33 34 38 40 40 38 39 41 42 43 41 35 37 45 44 37 36 36 31 28 31 33 29 27 30 30 24 28 25 10 8 8 5 17 27 27 31 31 25 18 11 11 16 20 24 24 24 24 18 13 11 11 13
43 43 44 44 43 40 40 38 37 38 36 33 36 42 46 48 48 47 43 41 41 36 31 30 30 31 30 29 32 29 23 23 27 30 32 32 32 35 36 37 38 38 37 38 43 47 42 36 40 47 46 42 41 35 30 33 35 34 35 33 26 17 18 21 12 4 7 5 9 24 30 32 34 34 31 27 27 26 19 13 12 11 11 10 10 11 12 14
42 43 45 46 42 38 37 37 35 36 35 36 40 45 49 50 48 47 45 44 44 42 40 39 37 37 37 36 36 33 28 27 25 25 27 26 26 27 26 25 26 26 27 31 36 42 42 34 29 39 47 42 38 38 38 37 32 33 36 34 33 27 18 19 19 14 11 8 8 16 18 27 43 44 36 27 20 14 5 2 1 3 6 12 14 13 16 17
39 40 44 46 42 37 35 35 34 33 35 40 45 49 50 50 48 47 46 43 43 42 41 40 36 33 33 35 36 36 35 33 27 22 21 20 21 24 22 19 19 19 20 24 30 36 40 36 29 33 40 38 37 42 41 37 31 31 36 36 37 37 27 20 20 24 21 10 6 8 8 28 51 40 24 21 15 12 9 3 4 6 9 14 12 11 15 18
37 38 44 45 41 35 33 32 33 35 38 42 46 49 48 46 47 48 45 43 44 44 43 42 39 36 35 37 38 38 38 38 36 31 28 28 28 27 24 24 23 20 18 18 23 30 34 34 31 30 34 38 44 46 42 40 36 31 33 35 37 40 34 19 12 26 33 20 12 10 6 29 54 41 28 30 25 22 25 23 22 23 25 27 24 21 20 21
38 39 44 44 39 34 32 32 34 37 40 43 44 45 43 43 45 44 41 40 41 42 42 42 41 40 38 38 39 39 39 40 41 40 40 42 42 38 34 30 23 16 15 16 17 21 27 30 31 33 35 38 41 42 42 45 45 37 31 31 33 38 40 29 15 18 27 24 23 21 11 26 53 52 44 47 43 40 44 44 41 41 39 35 31 29 28 29
38 39 41 41 38 34 32 31 31 35 40 43 44 43 41 42 44 44 42 41 40 40 41 41 41 41 40 40 38 39 40 40 42 43 43 43 44 44 42 39 32 24 23 24 21 21 23 22 23 28 34 37 38 40 42 43 39 33 30 31 33 35 40 39 33 29 25 20 21 19 10 22 46 52 48 51 53 51 51 50 45 43 40 33 28 30 33 36
37 37 38 39 37 35 34 34 34 36 41 44 44 44 43 43 45 46 47 47 44 42 43 43 44 43 44 44 42 43 43 40 40 42 42 42 42 42 39 37 37 35 35 36 33 32 29 22 15 13 16 21 25 28 35 40 37 32 32 35 37 40 39 38 41 38 27 24 28 18 8 23 43 49 48 52 58 59 60 59 56 53 54 52 48 48 49 48
36 36 36 36 36 36 38 40 39 39 41 43 45 45 44 45 47 47 49 49 47 46 46 46 45 44 45 45 44 47 47 44 44 44 45 47 48 47 44 40 39 40 41 41 39 38 38 38 31 18 8 9 12 15 26 35 32 28 31 36 39 42 42 42 43 34 21 27 37 27 22 39 53 53 54 58 61 62 62 62 62 59 57 57 57 58 58 55
34 35 35 35 35 37 41 41 40 40 41 42 44 45 45 47 49 48 49 50 50 49 47 45 43 43 44 45 45 46 47 47 48 47 48 50 49 48 47 45 45 44 43 43 41 40 42 46 47 41 33 29 31 34 39 39 32 29 33 37 39 37 36 40 42 36 30 33 37 38 43 52 55 53 57 60 59 58 57 53 52 53 54 56 60 61 61 60
32 33 33 32 29 30 36 39 39 40 39 38 41 43 43 45 45 44 45 47 48 47 45 43 42 42 44 45 46 46 46 47 48 48 49 49 49 49 50 49 50 48 45 44 43 44 45 43 45 51 51 50 53 53 53 52 49 49 48 48 49 45 41 40 39 40 39 31 29 42 52 53 53 55 58 58 56 54 52 48 49 53 57 59 60 61 63 63
30 31 30 28 27 27 30 33 34 34 34 35 38 40 40 42 43 42 43 45 45 44 43 43 42 42 43 43 44 45 44 43 46 48 47 47 48 49 51 52 52 48 45 46 46 47 48 47 46 51 53 54 56 55 54 56 58 58 56 55 55 55 53 51 49 51 50 42 41 50 53 53 55 56 57 58 55 52 51 52 55 58 57 56 56 59 64 63
29 31 30 29 32 34 34 35 35 35 35 36 38 37 36 37 39 39 37 38 39 40 42 44 45 44 46 46 44 45 44 43 47 48 48 48 48 48 52 53 52 48 45 46 48 46 48 50 49 51 55 56 55 54 55 57 59 60 60 59 58 60 62 61 59 59 60 58 60 60 58 60 61 59 61 62 57 54 55 56 56 54 54 56 57 60 65 63
30 31 31 32 34 35 35 38 39 40 40 40 43 44 42 42 43 41 39 38 37 35 34 36 37 37 39 40 41 43 45 46 50 49 46 44 42 43 46 46 46 46 44 44 46 45 47 50 49 48 50 50 51 54 54 55 58 60 60 60 60 62 66 66 65 63 61 62 65 63 61 65 67 65 66 63 57 58 60 57 54 54 57 60 59 61 66 65
32 32 32 33 35 34 34 36 38 40 42 42 45 46 44 44 44 43 45 48 46 43 41 40 41 40 39 37 36 38 40 41 43 43 42 42 41 42 42 40 40 42 44 45 45 43 43 45 45 42 39 41 47 51 52 56 59 61 61 61 61 64 66 67 66 65 63 64 64 61 59 62 65 65 63 61 59 60 60 57 57 59 61 61 61 63 66 65
34 33 32 33 35 36 36 36 36 39 42 42 44 44 40 39 42 43 44 46 46 47 45 42 43 47 47 44 42 42 43 42 41 41 42 45 48 50 51 51 50 50 50 48 46 45 44 44 44 39 35 40 47 50 54 52 42 42 52 58 61 65 67 67 68 67 66 65 63 60 60 62 63 61 60 61 61 60 58 57 59 63 64 65 67 68 66 63
Wind_Direction
278 279 280 282 283 286 288 291 293 295 295 295 296 297 299 300 301 301 302 300 298 297 295 294 292 290 289 286 287 284 285 285 285 301 298 286 287 283 286 292 293 299 303 305 307 306 305 306 309 308 309 305 303 302 287 288 289 287 288 284 288 304 312 297 286 293 284 282 287 288 293 299 301 299 297 295 295 295 291 290 294 297 297 298 300 299 297 296
275 275 277 278 278 280 282 284 286 289 290 291 291 292 293 295 296 296 296 296 295 294 291 290 289 288 287 286 284 280 280 277 280 288 269 268 270 266 272 280 281 286 291 295 297 294 292 289 288 291 290 291 296 290 282 286 285 287 286 281 292 310 306 291 277 274 273 275 279 283 291 296 297 297 296 293 294 292 288 291 295 294 295 298 297 295 295 296
277 276 277 277 277 278 279 281 282 284 285 287 287 288 290 291 292 293 293 294 293 292 290 289 287 286 285 284 284 282 280 276 279 277 259 262 265 260 261 268 275 275 277 282 286 287 287 283 279 274 272 279 286 281 281 285 285 283 277 278 299 312 299 292 282 274 273 276 279 286 292 294 297 298 293 292 293 288 287 295 296 292 293 292 290 291 294 295
280 279 279 278 278 277 278 281 281 283 284 284 284 285 286 287 288 288 289 290 290 290 289 289 287 286 284 283 283 282 281 280 281 274 262 264 266 262 260 265 271 270 270 272 275 280 283 283 282 278 276 282 287 286 286 288 286 278 273 280 298 302 295 294 288 280 279 282 285 290 293 294 297 294 291 293 292 289 297 302 294 288 288 285 285 287 289 291
280 281 281 280 279 279 278 279 280 282 283 284 284 284 285 286 286 285 285 286 286 287 286 287 287 286 285 283 282 281 281 285 289 279 260 259 265 261 255 259 268 270 268 268 271 275 278 280 282 282 284 288 290 292 295 294 287 280 280 288 297 301 297 295 292 287 288 288 289 292 293 293 293 289 291 293 287 291 308 299 290 289 286 282 282 283 285 289
279 279 280 280 280 280 280 279 279 280 280 282 282 283 284 285 287 286 285 284 284 284 284 284 284 284 284 283 282 280 280 284 288 279 263 260 267 262 252 254 263 268 267 268 269 271 275 277 277 279 281 281 282 287 292 292 289 287 290 296 302 304 298 297 296 293 295 293 293 294 291 289 288 289 292 289 285 290 297 292 291 289 285 281 281 282 286 290
277 278 278 279 279 280 280 280 280 281 281 282 282 283 283 284 285 286 287 286 285 284 282 282 281 281 281 280 279 277 275 279 281 278 273 270 271 266 260 261 265 269 268 267 267 271 273 274 277 277 274 274 278 282 283 284 285 286 293 302 304 300 296 299 297 295 297 294 294 292 288 286 287 290 289 286 289 293 291 289 288 285 283 282 282 286 290 291
276 276 277 278 278 279 279 279 280 281 282 283 283 284 283 284 284 285 286 286 286 285 283 281 280 279 279 277 276 272 272 279 279 277 277 274 273 270 267 267 270 271 268 265 266 269 270 273 275 273 272 275 279 281 281 282 281 282 291 299 298 296 296 297 295 294 294 293 293 290 288 289 290 289 286 290 302 304 296 286 281 280 278 277 281 288 290 292
273 273 275 276 277 278 279 279 279 280 281 282 283 284 285 285 284 285 285 285 286 285 284 282 280 279 278 277 275 270 272 277 275 274 274 271 271 271 270 270 269 268 266 266 265 266 268 271 271 270 273 275 276 277 278 277 276 280 287 291 292 293 294 294 293 294 295 296 295 292 291 290 291 285 285 303 321 312 299 284 280 279 275 277 283 287 289 291
269 270 272 273 274 276 276 278 278 279 280 280 281 282 283 284 284 284 284 285 284 284 284 283 282 280 278 278 275 270 273 276 272 271 272 271 271 270 271 271 269 268 266 265 264 266 268 269 269 269 271 272 272 273 273 272 273 278 281 284 288 290 291 291 290 296 299 296 292 291 292 291 286 277 283 313 326 303 290 283 282 280 277 281 284 286 288 288
267 268 270 271 271 272 273 274 275 276 277 278 279 280 281 281 281 282 282 283 283 283 282 282 282 281 280 278 274 273 276 274 271 271 273 274 274 272 272 272 271 270 268 265 265 267 268 269 269 269 269 270 271 273 273 271 274 278 279 281 284 285 286 286 289 301 301 293 291 290 289 288 279 275 289 313 312 294 286 286 288 286 285 286 285 286 285 287
268 268 269 269 270 270 270 271 272 272 273 275 276 277 278 278 279 280 280 281 282 282 281 281 280 280 280 276 273 277 277 273 273 272 272 274 274 273 273 272 272 272 270 268 267 268 269 270 270 269 267 268 270 273 274 275 276 277 278 281 284 284 282 285 292 299 296 290 295 291 285 287 284 287 301 310 299 289 287 292 294 293 293 290 287 285 284 288
271 271 270 270 270 269 269 270 270 270 271 272 273 275 276 277 278 279 279 280 280 280 280 280 280 279 279 275 273 276 275 275 275 274 275 275 273 273 272 271 272 272 272 270 269 269 269 269 268 267 266 267 269 271 273 274 273 275 277 280 283 283 282 290 296 293 291 292 300 294 281 290 296 299 306 305 296 288 289 296 297 296 295 291 288 285 286 288
272 271 271 271 270 270 270 270 270 270 270 270 271 273 274 275 276 277 278 278 278 278 279 280 280 280 278 275 273 274 274 275 276 277 279 276 272 271 271 271 272 272 272 272 271 269 268 267 265 264 265 267 270 271 271 270 271 275 277 276 278 279 284 296 297 290 292 294 303 294 273 290 300 299 304 305 299 293 294 301 300 297 295 293 291 288 288 289
271 271 271 270 270 270 271 270 270 270 270 269 270 270 271 272 273 275 276 276 276 276 277 278 278 279 279 276 273 274 275 276 277 280 280 278 274 272 271 270 270 271 271 271 271 270 268 267 264 265 266 267 270 269 268 269 272 274 273 274 275 276 286 298 293 288 294 296 299 286 270 290 300 300 305 304 299 296 298 302 301 299 299 297 295 292 291 292
273 273 272 272 271 271 272 272 272 271 271 271 270 270 270 270 270 271 272 273 274 274 275 276 275 276 277 276 274 275 276 278 280 279 278 277 275 273 271 270 269 269 270 270 270 270 269 267 265 265 265 266 267 267 269 271 271 271 269 271 275 279 288 296 291 289 296 295 291 283 277 289 297 301 305 300 297 298 298 300 300 300 300 299 297 295 294 295
275 275 275 275 275 274 274 274 273 273 273 273 272 272 272 272 271 270 270 270 271 272 273 273 273 273 273 275 278 278 278 280 279 277 276 276 274 272 269 268 268 268 268 268 267 269 268 267 265 264 264 266 266 265 264 264 267 270 269 270 277 284 289 291 290 291 296 293 289 286 281 286 295 302 302 297 296 296 295 297 298 298 299 300 300 298 297 297
278 279 279 279 280 279 279 277 277 276 275 276 275 275 274 274 273 272 272 271 271 271 271 272 273 273 274 276 278 277 276 277 278 276 276 275 273 271 268 267 266 265 266 266 266 266 266 267 265 262 263 263 262 258 253 259 270 273 274 277 283 287 286 287 289 291 293 289 286 283 280 287 296 299 298 294 290 292 293 294 296 297 299 302 302 299 297 296
281 281 282 283 284 285 284 283 283 282 281 280 279 279 278 277 275 274 273 271 270 271 272 274 273 272 275 276 275 274 273 272 273 273 273 273 272 270 269 267 265 263 264 265 265 265 266 267 261 258 261 262 263 262 263 272 278 278 279 282 284 284 283 285 287 290 290 284 279 280 281 288 295 295 295 292 286 286 289 291 294 297 300 302 302 300 298 296
282 283 284 284 285 286 287 287 288 288 287 286 285 285 284 283 281 278 275 272 271 270 270 272 273 273 274 274 273 273 273 272 271 271 270 269 270 270 269 266 265 264 262 264 266 269 270 266 260 260 263 266 269 272 275 281 280 278 280 281 282 282 282 285 288 290 290 281 278 283 285 288 292 292 293 291 285 282 284 290 295 298 300 301 302 303 302 299
282 282 283 284 285 286 286 287 289 289 290 290 290 290 289 289 288 286 283 278 273 272 270 270 272 272 272 273 273 274 274 273 271 269 266 267 269 269 267 266 266 265 263 266 269 270 267 263 262 265 268 272 276 277 278 278 277 277 278 280 281 280 282 286 288 289 289 281 280 286 286 286 289 291 292 289 284 281 283 291 296 297 297 300 304 306 304 303
281 282 283 284 285 286 287 287 288 289 290 291 292 292 292 293 292 293 291 286 281 277 275 273 271 272 272 272 273 274 273 271 270 267 266 268 268 267 267 266 266 267 267 268 268 267 264 262 266 270 273 275 275 275 275 276 276 276 276 276 275 278 283 285 286 288 287 281 283 288 286 285 287 289 289 286 282 282 285 290 294 294 295 301 307 307 306 303
280 281 283 284 284 285 286 286 287 289 290 291 292 292 293 293 294 294 293 292 288 284 280 279 277 275 275 273 272 272 271 271 270 269 267 266 266 265 266 266 267 268 268 266 265 264 263 266 272 275 276 275 273 273 273 275 274 272 272 270 270 277 280 280 286 290 288 285 287 290 287 284 284 285 283 282 282 283 284 287 289 292 296 303 308 308 306 302
279 280 281 282 283 283 283 285 286 288 288 290 291 292 293 293 294 295 295 294 292 288 284 284 283 280 279 277 273 270 269 269 268 268 266 263 263 264 264 266 267 267 267 266 266 266 266 270 276 276 275 274 273 272 271 272 273 273 272 270 272 278 278 279 286 290 288 287 287 290 288 283 283 283 283 284 282 279 281 285 289 293 297 304 308 308 306 301
279 279 279 280 281 281 282 283 284 285 286 288 289 290 292 292 294 296 297 297 294 293 292 290 287 284 281 276 271 268 266 265 264 265 266 262 261 261 263 265 265 266 267 268 269 270 270 273 275 274 274 273 273 273 271 271 274 274 273 273 277 281 281 282 286 288 286 286 288 290 288 285 286 284 285 286 280 279 283 287 291 294 298 302 305 308 307 303
282 282 281 281 281 281 281 281 281 282 284 285 287 289 289 292 295 296 299 299 295 295 297 295 287 283 282 275 271 266 262 264 266 265 264 262 260 260 260 261 262 265 267 268 270 270 272 274 272 271 272 272 270 270 272 272 271 272 274 279 282 282 282 284 285 285 282 283 286 280 270 289 290 284 284 283 280 283 286 288 292 294 298 300 300 306 305 301
283 284 284 284 283 283 283 282 282 282 283 284 285 287 288 292 295 298 304 303 296 298 303 303 286 281 284 282 277 264 258 269 276 271 268 266 263 260 257 259 260 262 265 264 264 266 271 273 272 273 272 270 267 268 274 273 268 270 277 282 282 282 283 285 286 284 280 282 280 266 257 281 285 283 285 283 280 283 285 289 293 295 296 296 300 304 296 301
282 282 282 282 282 282 282 283 283 283 284 284 284 286 289 294 296 300 309 303 289 303 308 297 286 279 282 280 276 269 266 276 280 277 278 272 264 261 259 260 260 261 262 260 259 263 268 271 272 273 271 269 270 274 278 274 267 272 279 280 279 280 281 282 284 282 282 286 281 267 253 263 278 281 284 282 274 275 284 291 295 296 296 298 304 299 287 307
281 280 280 280 279 279 279 279 281 283 283 282 283 285 287 292 294 295 299 270 275 297 293 285 280 274 278 271 262 264 267 273 276 275 275 266 261 263 262 262 259 258 259 257 260 264 267 268 268 266 264 268 273 277 277 272 269 273 277 277 276 277 277 280 281 279 282 281 274 256 220 229 281 283 279 267 267 277 285 292 298 296 301 306 306 295 296 312
278 279 280 279 279 280 278 276 277 279 280 281 281 282 284 286 286 285 268 254 272 290 286 283 278 273 278 267 254 259 263 268 270 270 267 262 262 262 260 260 257 256 257 256 259 264 267 268 265 263 264 267 270 271 271 269 268 270 272 272 273 274 276 277 274 275 282 274 262 255 248 242 275 287 284 257 272 286 286 294 301 294 301 305 303 305 310 315
276 278 279 278 279 279 277 277 276 274 275 277 277 279 280 279 272 252 238 262 276 284 281 283 284 282 285 272 260 260 261 262 262 262 264 264 265 262 259 258 256 255 256 255 259 265 266 265 267 270 270 268 268 269 269 268 267 268 268 267 270 276 279 276 267 262 262 264 264 271 267 244 239 265 330 312 289 299 280 293 297 295 300 294 293 308 313 314
277 278 278 278 279 278 278 280 278 275 275 277 279 279 275 268 244 232 241 262 280 285 279 295 310 308 308 284 268 264 261 261 260 259 263 264 265 265 263 261 259 254 254 258 262 266 265 266 271 273 272 270 269 266 265 265 266 265 260 256 258 279 292 281 251 223 233 252 263 273 260 235 244 258 271 271 276 281 282 291 294 293 299 290 291 307 311 309
277 278 277 277 279 279 279 279 278 278 279 281 284 279 270 246 237 248 249 252 255 259 273 285 290 293 292 282 275 272 267 267 267 263 262 262 263 264 263 262 259 254 255 262 266 266 268 271 268 263 264 267 264 260 260 266 270 265 257 248 234 216 331 263 251 266 255 259 267 265 245 243 260 270 274 275 280 284 285 293 293 292 292 288 291 306 310 307
277 277 275 274 275 276 278 279 280 280 279 280 280 272 254 228 249 260 257 256 260 267 274 278 281 283 282 278 275 272 269 270 269 264 262 262 262 262 262 261 260 258 257 258 261 263 266 272 270 264 261 264 263 264 270 276 276 270 265 255 239 227 213 214 244 250 263 284 282 248 218 250 272 279 285 288 288 287 289 292 292 290 286 283 289 304 308 303
275 275 275 273 271 272 275 277 280 281 279 278 272 255 237 241 256 262 261 265 272 274 274 274 277 278 276 274 272 271 270 269 268 265 262 262 263 264 263 262 262 260 255 250 255 261 257 266 275 274 268 267 268 271 274 270 264 264 259 244 240 245 245 239 247 256 272 316 284 233 227 263 274 277 281 286 286 287 291 290 284 281 282 285 289 298 301 291
276 275 274 274 273 274 273 272 274 275 274 274 265 248 246 256 262 263 265 271 275 273 274 275 276 274 273 272 269 269 270 269 268 264 259 260 261 262 263 262 261 260 257 256 259 261 255 263 274 276 271 272 274 273 269 259 254 255 244 238 252 261 252 240 246 261 267 290 273 259 257 271 280 286 287 287 283 284 292 290 282 279 282 285 285 291 292 283
276 275 274 273 274 273 272 270 270 269 271 271 262 256 262 267 266 265 268 273 272 269 271 274 272 269 269 269 269 272 274 270 267 260 257 258 258 260 262 263 263 261 262 264 264 262 261 263 268 270 271 274 275 273 265 254 247 242 242 254 262 256 243 236 233 266 256 248 271 269 270 278 284 285 285 279 277 288 295 295 293 286 279 277 283 292 280 270
277 275 273 272 272 271 271 271 267 265 267 267 263 264 268 270 270 270 271 272 271 267 263 262 264 265 266 269 272 275 272 267 266 263 260 260 261 266 268 268 268 267 268 268 264 263 262 259 261 265 267 271 273 270 257 246 240 238 247 255 249 234 227 223 207 216 245 229 263 270 274 279 273 270 279 288 293 299 305 303 298 289 272 270 292 293 268 256
280 278 276 273 272 270 269 269 266 263 261 259 259 262 265 268 271 273 273 272 272 270 266 264 266 268 269 270 271 272 268 263 265 265 262 259 260 267 271 274 276 277 280 276 269 267 265 259 257 262 266 269 268 259 248 242 237 234 241 242 239 242 237 221 214 212 229 233 249 266 275 275 270 272 280 287 293 297 306 66 315 279 270 278 291 286 262 250
280 279 277 276 275 273 270 267 265 261 256 255 257 261 264 267 270 273 276 275 272 270 269 268 267 264 264 264 265 267 265 259 256 257 256 252 255 263 266 268 272 275 277 275 271 268 263 256 252 256 260 259 255 253 252 254 249 238 236 238 240 243 240 238 233 223 227 236 240 245 253 265 270 274 274 272 275 265 263 303 287 268 278 279 283 280 260 247
279 277 276 277 278 276 272 266 263 261 258 259 261 262 265 268 271 274 278 278 274 271 270 268 265 261 260 262 263 266 264 259 258 256 251 250 251 254 255 257 261 260 258 271 278 267 254 250 250 250 248 248 254 261 265 270 269 258 249 248 251 250 245 245 243 231 234 236 237 244 241 258 265 270 269 268 270 268 272 282 280 277 281 280 280 279 269 257
274 273 275 278 278 277 274 268 265 264 261 261 262 264 266 270 271 272 276 277 274 273 272 270 269 267 265 266 268 271 269 267 268 264 259 260 258 256 256 255 253 253 263 286 293 270 255 254 254 252 251 254 261 266 269 273 273 265 257 254 257 257 249 242 241 242 242 241 244 251 248 254 263 268 271 271 273 275 278 281 283 282 284 285 284 277 269 261
272 271 273 275 275 275 272 266 263 263 263 265 268 268 268 269 269 270 272 273 273 273 274 274 276 276 275 275 275 277 277 276 275 272 269 270 268 267 268 261 251 252 266 274 273 266 262 261 260 261 261 259 260 261 263 267 267 259 254 255 255 254 251 250 255 261 260 254 251 251 249 259 265 269 273 276 279 280 280 279 280 281 282 283 279 272 269 264
271 271 271 271 270 267 262 257 257 258 263 269 271 270 269 268 269 269 270 271 273 274 276 276 278 279 279 280 278 278 279 275 274 276 276 274 275 278 279 270 260 262 268 269 272 275 268 258 265 281 274 261 258 259 258 257 259 260 259 260 258 257 258 260 260 261 261 260 259 261 267 264 267 271 276 280 283 283 281 277 276 278 281 281 281 280 278 272
271 270 269 269 266 263 259 258 259 259 262 267 270 270 270 269 269 270 271 273 275 276 275 275 276 277 276 277 276 276 275 271 269 273 275 275 278 281 281 276 273 276 277 274 278 281 270 257 257 256 240 245 246 244 250 254 256 259 260 262 263 260 259 258 256 254 252 254 254 253 261 264 266 272 279 285 288 287 286 283 280 280 282 285 287 287 285 281
269 268 268 267 264 262 263 264 263 260 260 263 266 268 269 269 271 273 274 274 274 275 274 273 274 275 274 273 272 270 270 269 268 269 269 272 277 280 281 281 281 284 283 277 276 277 267 258 256 250 241 243 246 248 255 259 256 255 260 265 267 263 258 256 252 246 247 252 249 247 254 260 262 268 276 285 291 290 291 291 286 283 285 290 292 290 287 285
268 267 267 265 263 261 263 265 265 262 263 264 264 266 269 271 274 274 273 273 274 276 276 275 273 271 270 270 271 269 269 269 267 264 265 270 276 279 282 283 283 285 283 275 273 271 261 253 256 254 249 251 255 258 262 260 257 258 261 264 266 264 256 251 249 248 250 251 248 251 255 256 259 264 271 280 287 287 288 289 287 288 291 293 293 291 289 287
269 268 265 260 256 254 257 262 263 263 264 263 262 265 269 272 272 272 274 277 279 279 277 274 272 271 271 273 271 267 266 267 265 263 264 268 274 279 282 284 284 285 281 273 270 269 260 253 257 259 256 257 259 261 263 260 258 259 259 261 264 263 256 250 248 250 251 250 252 259 261 259 260 264 266 272 278 279 282 286 289 291 293 293 293 291 288 288
270 269 266 259 255 255 256 257 255 254 253 251 251 254 259 263 264 265 269 274 275 275 273 270 271 275 277 278 273 266 265 266 265 265 266 268 272 276 278 281 282 282 278 272 271 270 261 255 260 261 259 259 258 259 260 259 258 258 258 260 261 261 259 255 253 254 255 256 258 262 262 260 261 263 264 268 272 274 278 284 288 290 293 296 294 289 287 287
271 269 267 263 260 261 262 259 255 252 250 248 248 251 254 258 262 265 265 265 267 270 272 272 276 277 275 274 269 265 266 266 263 264 265 269 274 275 274 276 278 278 276 273 273 272 262 258 263 263 258 256 258 259 258 256 255 255 257 260 261 261 260 256 254 256 258 259 261 261 259 259 261 264 265 267 270 272 274 280 285 289 291 292 290 287 286 288
272 270 270 268 266 265 264 262 257 253 253 253 253 254 255 257 260 263 263 262 263 266 269 274 277 275 271 268 265 265 268 267 263 263 264 266 269 270 269 270 271 272 273 272 272 270 263 262 265 262 255 254 259 262 260 256 255 251 251 257 260 259 256 253 252 255 257 258 260 259 257 261 267 271 269 269 270 272 273 279 284 287 287 286 287 287 288 290
273 272 271 269 268 268 266 263 258 253 257 261 259 255 255 255 256 258 261 262 262 264 267 270 271 270 269 269 268 268 269 269 268 268 266 265 266 266 267 269 269 270 271 270 268 266 265 265 265 260 255 256 262 265 262 258 252 241 245 257 262 260 255 251 252 256 259 257 256 256 261 270 277 276 270 268 270 272 275 281 284 285 286 286 287 289 289 290
Height
3188 3188 3189 3189 3189 3189 3189 3189 3189 3189 3189 3189 3189 3189 3189 3189 3189 3189 3189 3189 3188 3188 3188 3187 3187 3186 3186 3186 3185 3185 3185 3185 3184 3185 3184 3184 3184 3183 3183 3183 3182 3182 3182 3181 3181 3180 3180 3179 3179 3179 3178 3178 3178 3177 3177 3176 3176 3175 3175 3174 3173 3174 3174 3173 3172 3172 3171 3171 3170 3169 3169 3168 3168 3167 3166 3165 3165 3164 3163 3162 3162 3161 3160 3159 3159 3159 3159 3159
3187 3187 3187 3187 3187 3188 3188 3188 3188 3188 3188 3188 3188 3188 3187 3187 3187 3187 3187 3187 3187 3187 3186 3186 3186 3185 3185 3185 3184 3184 3184 3183 3183 3184 3183 3182 3182 3182 3182 3182 3181 3181 3181 3180 3180 3180 3179 3179 3178 3178 3178 3177 3177 3176 3176 3176 3175 3174 3174 3172 3172 3172 3172 3172 3171 3171 3170 3169 3169 3168 3168 3166 3165 3165 3164 3163 3163 3162 3160 3160 3160 3159 3159 3158 3157 3156 3156 3156
3186 3186 3186 3186 3186 3186 3186 3186 3186 3186 3186 3186 3187 3186 3186 3186 3186 3185 3185 3185 3185 3185 3185 3184 3184 3184 3183 3183 3183 3183 3182 3182 3182 3183 3182 3181 3181 3181 3180 3180 3180 3180 3179 3179 3179 3179 3178 3178 3177 3177 3177 3176 3176 3175 3175 3175 3174 3173 3172 3170 3171 3171 3170 3170 3170 3169 3168 3168 3168 3167 3166 3164 3164 3163 3162 3161 3160 3159 3158 3159 3158 3157 3157 3156 3155 3154 3154 3154
3185 3185 3185 3185 3185 3184 3184 3185 3185 3185 3185 3185 3185 3185 3185 3185 3185 3184 3184 3183 3183 3183 3183 3183 3182 3182 3182 3182 3182 3181 3181 3181 3181 3181 3180 3180 3180 3179 3179 3179 3179 3178 3178 3178 3178 3177 3177 3176 3176 3175 3175 3175 3174 3173 3174 3174 3173 3171 3170 3169 3170 3170 3168 3168 3169 3167 3167 3166 3166 3165 3164 3162 3162 3160 3159 3159 3158 3156 3157 3157 3156 3155 3155 3154 3153 3153 3152 3152
3184 3184 3183 3183 3183 3183 3183 3183 3183 3183 3183 3183 3183 3183 3183 3183 3183 3183 3183 3182 3182 3181 3181 3181 3181 3180 3180 3180 3180 3180 3180 3180 3179 3179 3179 3179 3178 3178 3178 3178 3178 3177 3177 3177 3177 3176 3176 3175 3174 3174 3173 3173 3172 3172 3171 3172 3171 3168 3167 3168 3168 3168 3166 3166 3166 3165 3165 3164 3163 3163 3162 3161 3160 3158 3157 3157 3155 3154 3155 3155 3154 3152 3152 3152 3150 3150 3150 3149
3182 3182 3182 3182 3182 3182 3182 3181 3181 3181 3181 3181 3181 3181 3181 3181 3181 3181 3181 3181 3180 3180 3179 3179 3179 3178 3178 3178 3178 3178 3178 3178 3178 3178 3177 3177 3177 3177 3176 3176 3176 3176 3176 3176 3176 3175 3175 3174 3173 3173 3172 3172 3171 3170 3170 3169 3168 3165 3165 3166 3166 3165 3163 3163 3164 3162 3162 3161 3160 3160 3159 3158 3157 3156 3156 3154 3151 3152 3153 3152 3151 3150 3148 3148 3147 3147 3147 3147
3181 3181 3180 3180 3180 3180 3180 3180 3179 3179 3179 3179 3179 3179 3179 3179 3179 3179 3179 3178 3178 3178 3178 3177 3177 3176 3176 3176 3176 3175 3176 3176 3176 3176 3175 3175 3175 3175 3175 3175 3175 3174 3174 3174 3174 3173 3173 3173 3172 3172 3171 3170 3170 3169 3169 3168 3166 3163 3163 3164 3163 3163 3161 3161 3161 3160 3160 3158 3158 3158 3156 3155 3155 3154 3153 3150 3148 3150 3151 3150 3149 3147 3145 3144 3144 3144 3144 3144
3179 3179 3178 3179 3178 3178 3178 3178 3177 3177 3177 3177 3177 3177 3176 3177 3177 3176 3176 3176 3176 3176 3176 3175 3175 3174 3174 3173 3173 3173 3173 3174 3174 3173 3173 3173 3173 3173 3173 3173 3173 3173 3173 3172 3172 3172 3171 3171 3171 3170 3168 3168 3168 3167 3167 3165 3164 3162 3161 3161 3161 3160 3159 3159 3158 3157 3157 3156 3155 3155 3153 3153 3153 3152 3149 3146 3146 3148 3148 3147 3146 3145 3143 3142 3141 3141 3140 3141
3177 3176 3177 3176 3176 3176 3176 3176 3176 3175 3175 3175 3174 3174 3174 3174 3174 3174 3174 3174 3174 3173 3173 3173 3172 3172 3171 3171 3171 3170 3171 3172 3172 3171 3171 3171 3171 3171 3171 3171 3171 3170 3170 3170 3170 3169 3169 3169 3169 3168 3167 3166 3166 3165 3165 3163 3161 3160 3160 3159 3158 3157 3157 3156 3155 3155 3154 3153 3152 3151 3150 3150 3151 3149 3144 3144 3146 3146 3145 3144 3144 3143 3142 3141 3140 3139 3138 3137
3174 3174 3175 3174 3174 3174 3174 3174 3173 3173 3173 3172 3172 3172 3172 3171 3171 3171 3171 3171 3171 3171 3171 3170 3170 3169 3169 3169 3168 3167 3170 3170 3169 3169 3168 3168 3169 3169 3169 3168 3168 3168 3168 3168 3168 3167 3167 3167 3166 3165 3165 3164 3163 3163 3163 3161 3158 3158 3158 3157 3156 3155 3154 3153 3152 3152 3151 3150 3148 3147 3147 3147 3147 3144 3141 3143 3144 3143 3142 3141 3141 3140 3139 3139 3138 3137 3136 3134
3172 3173 3172 3172 3172 3172 3172 3171 3171 3171 3171 3170 3170 3170 3169 3169 3169 3169 3169 3168 3168 3168 3168 3167 3167 3166 3166 3166 3165 3165 3167 3167 3167 3167 3166 3166 3166 3166 3166 3166 3166 3165 3165 3165 3165 3165 3164 3164 3163 3163 3162 3161 3160 3160 3159 3158 3156 3156 3155 3153 3153 3152 3150 3150 3149 3149 3149 3146 3145 3144 3143 3143 3143 3140 3138 3141 3141 3140 3139 3138 3138 3137 3137 3137 3135 3134 3133 3132
3170 3170 3170 3170 3170 3169 3169 3169 3169 3168 3168 3168 3168 3167 3167 3166 3166 3166 3166 3166 3165 3165 3165 3164 3163 3163 3162 3162 3162 3164 3164 3164 3164 3165 3164 3164 3164 3164 3164 3164 3163 3163 3163 3163 3163 3162 3162 3162 3161 3160 3160 3159 3157 3157 3156 3155 3154 3153 3152 3150 3149 3148 3146 3147 3147 3147 3145 3143 3143 3142 3139 3138 3138 3136 3136 3138 3138 3137 3136 3135 3135 3134 3133 3133 3132 3131 3130 3129
3167 3167 3167 3167 3167 3167 3167 3167 3166 3166 3166 3166 3165 3165 3164 3164 3163 3163 3163 3163 3162 3161 3161 3160 3160 3159 3158 3158 3160 3161 3161 3161 3162 3162 3162 3163 3162 3162 3162 3161 3161 3161 3160 3160 3160 3160 3159 3159 3158 3157 3157 3156 3155 3155 3153 3152 3151 3150 3149 3147 3145 3143 3141 3144 3146 3144 3142 3140 3140 3139 3135 3132 3133 3134 3134 3135 3135 3133 3133 3132 3132 3131 3130 3129 3128 3127 3126 3126
3164 3164 3164 3164 3164 3164 3164 3164 3164 3163 3164 3163 3163 3162 3161 3161 3161 3160 3160 3160 3159 3158 3157 3157 3156 3156 3154 3155 3157 3157 3157 3158 3159 3159 3160 3160 3160 3159 3159 3159 3158 3158 3157 3157 3157 3157 3156 3155 3154 3154 3154 3154 3153 3152 3149 3148 3148 3147 3146 3143 3142 3139 3136 3140 3143 3139 3138 3137 3136 3136 3131 3126 3127 3130 3131 3131 3131 3129 3128 3128 3128 3127 3126 3124 3124 3123 3121 3121
3160 3161 3161 3161 3161 3160 3161 3161 3161 3161 3160 3160 3160 3159 3159 3159 3158 3157 3157 3156 3156 3155 3154 3154 3152 3152 3150 3151 3154 3154 3154 3155 3156 3157 3157 3156 3157 3157 3157 3156 3155 3155 3154 3154 3154 3153 3152 3151 3150 3150 3151 3152 3151 3148 3145 3145 3146 3145 3142 3138 3138 3136 3132 3136 3138 3135 3134 3133 3132 3131 3127 3122 3121 3124 3127 3127 3126 3125 3123 3123 3123 3121 3121 3120 3118 3118 3116 3116
3157 3157 3157 3157 3157 3157 3158 3158 3157 3158 3157 3157 3157 3157 3156 3156 3155 3155 3153 3153 3152 3151 3151 3150 3149 3148 3146 3147 3150 3151 3151 3152 3153 3153 3153 3153 3154 3154 3154 3153 3152 3152 3151 3151 3150 3150 3148 3147 3146 3147 3148 3149 3149 3144 3142 3143 3142 3141 3138 3134 3135 3134 3131 3131 3131 3131 3131 3130 3128 3126 3123 3118 3116 3119 3123 3123 3121 3120 3118 3118 3118 3117 3116 3115 3114 3112 3111 3110
3153 3154 3154 3154 3154 3154 3154 3154 3154 3154 3154 3154 3154 3154 3154 3152 3152 3151 3150 3150 3149 3148 3148 3146 3146 3145 3142 3144 3146 3147 3148 3148 3149 3150 3150 3150 3150 3151 3150 3149 3149 3148 3147 3147 3147 3145 3144 3143 3142 3143 3145 3146 3145 3141 3140 3140 3137 3135 3134 3131 3131 3132 3130 3127 3125 3127 3128 3125 3123 3121 3117 3113 3113 3116 3118 3118 3118 3115 3114 3113 3113 3112 3111 3111 3110 3107 3106 3105
3150 3151 3150 3150 3150 3150 3151 3150 3150 3150 3150 3150 3150 3150 3150 3149 3148 3147 3147 3147 3145 3145 3144 3142 3143 3140 3138 3142 3143 3143 3145 3145 3145 3146 3147 3147 3147 3147 3146 3146 3145 3144 3143 3142 3142 3140 3139 3139 3138 3139 3142 3142 3139 3136 3134 3134 3132 3132 3132 3130 3129 3129 3128 3125 3122 3123 3124 3122 3120 3118 3112 3108 3109 3112 3113 3115 3115 3111 3109 3109 3108 3107 3107 3106 3105 3102 3101 3100
3148 3147 3148 3148 3147 3147 3147 3147 3147 3147 3147 3147 3146 3146 3146 3145 3144 3143 3143 3142 3142 3142 3141 3139 3139 3137 3136 3139 3140 3139 3141 3142 3142 3143 3144 3143 3143 3143 3143 3142 3140 3139 3138 3138 3137 3135 3136 3135 3132 3133 3137 3136 3133 3131 3129 3130 3132 3131 3131 3129 3126 3125 3124 3122 3121 3121 3122 3118 3116 3114 3109 3105 3104 3105 3107 3109 3111 3109 3105 3104 3103 3102 3102 3102 3101 3098 3096 3095
3144 3144 3145 3144 3144 3144 3144 3144 3144 3143 3143 3143 3143 3143 3142 3140 3138 3138 3137 3137 3138 3138 3138 3135 3133 3133 3133 3135 3136 3136 3137 3138 3138 3140 3140 3139 3139 3139 3139 3138 3135 3134 3134 3134 3133 3132 3132 3128 3124 3128 3131 3131 3131 3130 3129 3129 3130 3129 3127 3125 3122 3121 3118 3117 3119 3119 3119 3114 3109 3109 3105 3101 3100 3099 3101 3103 3104 3104 3101 3100 3098 3098 3098 3097 3096 3094 3092 3091
3141 3141 3141 3141 3141 3141 3141 3141 3141 3140 3140 3140 3140 3139 3138 3137 3134 3133 3131 3130 3133 3134 3133 3132 3130 3128 3129 3131 3131 3133 3134 3132 3133 3135 3135 3135 3136 3134 3134 3132 3130 3128 3130 3131 3129 3128 3125 3118 3118 3124 3127 3129 3130 3129 3128 3126 3125 3125 3123 3120 3117 3117 3113 3112 3115 3115 3116 3110 3103 3104 3100 3095 3096 3094 3094 3097 3097 3096 3096 3096 3094 3093 3094 3093 3091 3089 3088 3087
3138 3138 3138 3138 3138 3138 3138 3138 3137 3137 3137 3137 3137 3136 3135 3134 3131 3129 3125 3121 3125 3130 3128 3128 3127 3123 3125 3128 3127 3129 3129 3127 3128 3129 3131 3133 3131 3130 3129 3127 3125 3124 3126 3128 3125 3121 3115 3111 3115 3122 3125 3127 3126 3125 3125 3122 3121 3120 3119 3116 3112 3113 3110 3107 3110 3112 3111 3106 3098 3098 3093 3087 3089 3089 3088 3090 3090 3090 3091 3091 3090 3089 3090 3089 3088 3086 3084 3083
3135 3135 3136 3135 3135 3135 3135 3135 3135 3135 3134 3134 3134 3133 3132 3131 3129 3126 3122 3115 3115 3122 3123 3122 3123 3119 3121 3123 3123 3125 3122 3120 3122 3123 3128 3129 3125 3126 3124 3121 3121 3120 3122 3122 3120 3115 3108 3108 3116 3120 3122 3122 3120 3121 3122 3119 3117 3115 3114 3112 3107 3110 3110 3102 3104 3108 3105 3101 3096 3093 3086 3078 3081 3082 3080 3084 3084 3085 3086 3086 3086 3085 3086 3085 3084 3083 3080 3078
3132 3133 3133 3132 3132 3132 3132 3132 3132 3132 3131 3131 3131 3130 3130 3128 3127 3123 3119 3111 3105 3111 3117 3118 3116 3114 3117 3118 3118 3119 3117 3115 3116 3117 3122 3123 3120 3121 3119 3118 3117 3115 3116 3117 3116 3109 3104 3110 3115 3116 3117 3118 3116 3116 3118 3117 3114 3109 3108 3107 3103 3106 3107 3100 3101 3103 3099 3095 3093 3090 3079 3066 3070 3073 3071 3078 3081 3079 3081 3081 3081 3081 3082 3081 3079 3078 3077 3075
3129 3129 3129 3130 3130 3129 3130 3130 3129 3129 3129 3129 3128 3128 3127 3126 3125 3122 3117 3109 3099 3100 3108 3111 3110 3109 3111 3112 3111 3112 3110 3108 3110 3112 3115 3116 3116 3116 3114 3114 3112 3109 3111 3114 3111 3102 3102 3111 3113 3110 3111 3113 3112 3110 3113 3115 3110 3101 3100 3104 3103 3101 3102 3100 3101 3100 3094 3089 3089 3091 3078 3055 3057 3066 3065 3070 3075 3073 3076 3076 3075 3077 3077 3077 3076 3074 3074 3072
3126 3126 3126 3127 3126 3126 3127 3126 3126 3127 3126 3126 3126 3125 3125 3123 3123 3120 3116 3108 3095 3094 3100 3102 3103 3103 3104 3106 3106 3108 3105 3101 3105 3108 3109 3110 3111 3112 3110 3108 3107 3105 3107 3111 3107 3097 3098 3106 3107 3106 3106 3106 3107 3107 3109 3112 3106 3095 3094 3101 3102 3099 3099 3098 3098 3097 3091 3085 3084 3088 3082 3059 3047 3054 3060 3063 3066 3066 3070 3071 3070 3072 3072 3072 3073 3071 3070 3069
3123 3123 3123 3123 3123 3123 3123 3123 3123 3123 3123 3123 3122 3122 3122 3121 3121 3119 3117 3108 3094 3091 3095 3096 3098 3100 3101 3103 3103 3105 3102 3098 3101 3104 3104 3106 3106 3107 3105 3102 3103 3102 3103 3107 3102 3094 3096 3100 3101 3102 3102 3102 3102 3102 3104 3107 3103 3093 3092 3097 3098 3097 3097 3094 3095 3094 3088 3084 3080 3079 3086 3073 3045 3040 3052 3056 3057 3060 3062 3065 3066 3067 3068 3068 3068 3068 3067 3066
3120 3120 3119 3119 3120 3120 3120 3120 3120 3120 3121 3120 3119 3120 3119 3119 3120 3118 3119 3112 3094 3089 3094 3095 3096 3097 3099 3101 3101 3102 3100 3097 3099 3100 3102 3103 3101 3101 3100 3098 3099 3099 3100 3102 3094 3090 3095 3097 3096 3097 3098 3097 3097 3097 3099 3102 3099 3092 3092 3094 3093 3094 3093 3092 3092 3090 3087 3083 3074 3070 3083 3081 3047 3033 3047 3050 3049 3055 3055 3059 3062 3062 3064 3064 3064 3064 3063 3063
3117 3116 3115 3115 3116 3117 3117 3117 3118 3118 3117 3116 3117 3117 3116 3118 3117 3117 3121 3112 3092 3088 3092 3092 3093 3095 3096 3098 3098 3098 3098 3097 3097 3097 3099 3099 3098 3097 3095 3094 3097 3095 3095 3096 3088 3088 3093 3093 3092 3093 3093 3092 3092 3094 3096 3097 3094 3091 3092 3090 3090 3091 3089 3091 3088 3086 3089 3080 3068 3068 3078 3080 3048 3026 3040 3046 3044 3050 3051 3054 3057 3057 3060 3060 3060 3060 3059 3059
3112 3112 3111 3111 3112 3114 3113 3113 3116 3115 3114 3113 3113 3113 3114 3115 3115 3118 3117 3102 3089 3090 3091 3089 3091 3093 3093 3094 3095 3095 3095 3095 3095 3094 3095 3095 3095 3094 3092 3091 3094 3092 3091 3090 3085 3086 3090 3088 3087 3087 3088 3088 3089 3092 3091 3092 3091 3090 3091 3088 3087 3087 3085 3088 3084 3084 3088 3072 3062 3067 3073 3078 3054 3023 3031 3040 3039 3045 3047 3050 3053 3053 3055 3055 3056 3056 3054 3054
3108 3108 3107 3106 3108 3109 3108 3110 3113 3111 3110 3110 3109 3110 3111 3110 3114 3115 3105 3091 3088 3090 3087 3088 3089 3090 3091 3092 3092 3092 3093 3092 3092 3092 3092 3092 3091 3090 3088 3089 3090 3089 3088 3085 3082 3083 3085 3082 3081 3082 3083 3084 3086 3088 3086 3087 3088 3088 3088 3086 3086 3085 3082 3083 3081 3084 3085 3065 3059 3064 3066 3072 3051 3022 3028 3036 3036 3041 3043 3046 3049 3049 3051 3051 3052 3052 3050 3049
3104 3104 3103 3102 3103 3104 3104 3106 3107 3107 3106 3105 3106 3107 3106 3107 3108 3100 3089 3088 3091 3087 3085 3088 3087 3088 3090 3089 3088 3090 3090 3089 3090 3091 3090 3089 3088 3086 3086 3086 3087 3087 3084 3082 3080 3080 3078 3077 3078 3078 3078 3081 3082 3082 3082 3082 3084 3084 3083 3084 3086 3085 3083 3082 3079 3080 3075 3061 3057 3062 3064 3059 3033 3020 3032 3036 3035 3040 3040 3043 3045 3045 3047 3047 3048 3049 3047 3046
3100 3100 3099 3098 3098 3098 3099 3101 3102 3103 3103 3102 3102 3101 3102 3103 3096 3084 3082 3089 3090 3084 3085 3086 3085 3086 3086 3085 3085 3087 3086 3086 3087 3088 3087 3086 3084 3082 3083 3083 3084 3085 3082 3080 3079 3076 3073 3072 3073 3073 3073 3077 3077 3076 3077 3077 3078 3078 3076 3079 3082 3083 3083 3082 3078 3073 3064 3056 3055 3060 3061 3046 3022 3022 3033 3033 3035 3037 3037 3040 3041 3040 3042 3042 3043 3045 3043 3042
3096 3096 3095 3095 3094 3094 3095 3095 3097 3099 3099 3099 3097 3095 3097 3095 3084 3077 3080 3084 3084 3084 3085 3084 3082 3082 3081 3080 3081 3082 3083 3083 3083 3084 3083 3081 3079 3078 3079 3080 3081 3082 3081 3080 3077 3074 3073 3067 3064 3066 3069 3070 3069 3071 3073 3073 3072 3071 3071 3074 3075 3074 3077 3076 3071 3064 3057 3053 3053 3056 3053 3034 3020 3025 3028 3028 3032 3033 3033 3036 3035 3036 3037 3037 3039 3039 3038 3037
3091 3091 3090 3090 3089 3090 3091 3092 3093 3095 3095 3094 3091 3088 3088 3083 3076 3076 3079 3080 3082 3083 3082 3081 3080 3078 3076 3076 3076 3077 3079 3078 3078 3079 3078 3076 3075 3073 3074 3075 3078 3079 3078 3077 3074 3072 3071 3062 3058 3062 3064 3064 3064 3067 3070 3069 3067 3065 3066 3070 3067 3067 3069 3067 3063 3057 3056 3056 3049 3045 3040 3026 3021 3024 3025 3027 3029 3028 3030 3031 3031 3032 3033 3034 3034 3033 3033 3033
3085 3085 3084 3084 3084 3087 3088 3088 3089 3090 3090 3090 3085 3081 3078 3073 3071 3073 3075 3078 3080 3079 3079 3078 3078 3075 3072 3072 3072 3073 3075 3074 3074 3073 3072 3071 3070 3069 3068 3069 3073 3074 3073 3072 3070 3069 3066 3059 3059 3059 3057 3059 3061 3062 3065 3064 3061 3060 3060 3060 3060 3063 3064 3061 3059 3056 3058 3056 3043 3035 3030 3024 3022 3020 3020 3024 3024 3025 3028 3027 3028 3030 3029 3031 3030 3029 3029 3029
3079 3078 3078 3078 3079 3081 3082 3083 3085 3085 3085 3083 3078 3074 3071 3068 3068 3070 3073 3075 3076 3076 3077 3075 3074 3072 3070 3068 3068 3070 3072 3071 3070 3068 3067 3067 3064 3063 3063 3064 3067 3069 3069 3069 3065 3065 3062 3056 3058 3057 3052 3055 3056 3057 3060 3058 3055 3054 3053 3054 3056 3059 3058 3058 3058 3055 3056 3053 3039 3029 3026 3025 3025 3018 3015 3021 3022 3023 3024 3023 3024 3025 3025 3027 3027 3026 3027 3026
3072 3072 3071 3072 3073 3075 3076 3077 3078 3079 3079 3076 3071 3068 3066 3063 3064 3066 3069 3071 3072 3073 3074 3071 3070 3069 3067 3066 3064 3066 3068 3067 3066 3065 3064 3063 3059 3058 3060 3061 3062 3063 3066 3066 3060 3059 3059 3052 3052 3054 3050 3050 3053 3054 3052 3049 3049 3049 3049 3051 3052 3052 3051 3052 3053 3052 3051 3048 3036 3027 3023 3021 3019 3015 3014 3018 3019 3019 3020 3019 3019 3020 3022 3024 3024 3025 3025 3024
3065 3064 3063 3064 3066 3069 3071 3071 3071 3073 3072 3068 3064 3061 3059 3060 3061 3062 3064 3066 3068 3068 3067 3066 3066 3064 3063 3063 3061 3062 3063 3062 3063 3062 3060 3059 3056 3056 3057 3058 3058 3059 3061 3062 3056 3055 3055 3049 3047 3050 3048 3046 3048 3046 3042 3041 3045 3046 3046 3048 3047 3046 3046 3045 3044 3043 3041 3038 3031 3027 3023 3013 3008 3011 3015 3015 3015 3017 3017 3016 3017 3018 3020 3021 3021 3022 3021 3021
3059 3058 3055 3057 3058 3061 3065 3064 3064 3065 3062 3059 3058 3056 3055 3056 3058 3059 3060 3061 3063 3063 3061 3060 3061 3060 3059 3059 3058 3058 3058 3057 3058 3058 3057 3056 3055 3054 3055 3054 3055 3055 3055 3056 3054 3051 3051 3046 3043 3045 3045 3042 3039 3037 3035 3038 3042 3042 3042 3043 3042 3042 3041 3039 3037 3035 3032 3029 3026 3026 3020 3007 3001 3008 3013 3011 3012 3014 3013 3014 3015 3015 3016 3017 3017 3018 3017 3018
3054 3051 3049 3051 3052 3054 3058 3057 3056 3057 3054 3052 3052 3051 3052 3053 3053 3055 3056 3056 3056 3056 3056 3056 3056 3055 3054 3054 3055 3055 3053 3051 3052 3053 3051 3052 3052 3051 3051 3051 3051 3051 3050 3050 3050 3048 3046 3043 3039 3039 3039 3035 3033 3034 3036 3036 3037 3037 3037 3038 3039 3038 3038 3036 3031 3028 3026 3022 3019 3020 3014 3004 3002 3006 3009 3009 3010 3011 3010 3011 3011 3011 3012 3014 3014 3015 3015 3015
3048 3045 3044 3047 3047 3048 3051 3049 3048 3049 3046 3045 3046 3047 3048 3049 3049 3051 3051 3052 3051 3051 3051 3051 3050 3051 3051 3050 3050 3050 3049 3046 3046 3047 3045 3045 3047 3046 3047 3049 3049 3047 3046 3045 3045 3045 3042 3039 3037 3034 3033 3033 3033 3035 3034 3032 3032 3032 3031 3033 3035 3035 3033 3030 3023 3022 3022 3017 3016 3016 3008 3001 3004 3006 3006 3006 3006 3008 3007 3007 3007 3007 3008 3008 3009 3010 3011 3010
3041 3040 3041 3042 3042 3044 3045 3042 3042 3042 3038 3039 3042 3043 3044 3044 3044 3045 3046 3046 3046 3046 3046 3046 3046 3046 3046 3046 3046 3046 3045 3042 3038 3039 3040 3039 3040 3042 3043 3046 3046 3045 3043 3041 3040 3040 3039 3037 3034 3031 3029 3030 3031 3031 3030 3029 3028 3025 3024 3027 3030 3028 3028 3025 3021 3022 3020 3014 3015 3012 3002 2999 3003 3004 3004 3003 3001 3002 3003 3002 3002 3002 3002 3004 3004 3005 3006 3006
3036 3036 3036 3037 3037 3039 3038 3036 3037 3036 3034 3036 3037 3037 3039 3038 3038 3040 3040 3040 3041 3041 3041 3041 3042 3041 3041 3042 3042 3040 3041 3038 3032 3031 3033 3032 3033 3037 3040 3041 3042 3041 3039 3036 3036 3037 3036 3034 3032 3030 3028 3027 3027 3028 3026 3023 3022 3020 3020 3023 3023 3023 3025 3023 3021 3021 3015 3011 3013 3008 2998 2998 3002 3000 3000 3000 2996 2995 2995 2995 2996 2997 2996 2997 2998 2998 2999 2999
3031 3030 3031 3032 3032 3032 3030 3030 3033 3032 3031 3032 3031 3031 3034 3032 3032 3035 3035 3034 3036 3036 3034 3034 3036 3037 3036 3037 3035 3033 3033 3032 3027 3025 3026 3025 3025 3030 3034 3035 3036 3035 3034 3032 3032 3032 3030 3028 3028 3028 3026 3024 3022 3021 3019 3017 3018 3017 3016 3017 3017 3018 3019 3017 3016 3014 3008 3006 3007 3002 2995 2995 2998 2998 2996 2994 2990 2986 2984 2985 2989 2991 2991 2990 2990 2989 2989 2989
3025 3025 3026 3026 3026 3025 3023 3025 3028 3026 3027 3028 3025 3026 3027 3025 3025 3029 3029 3027 3029 3029 3028 3028 3030 3032 3031 3030 3029 3026 3025 3025 3023 3020 3019 3019 3019 3021 3025 3027 3027 3028 3028 3026 3027 3026 3020 3017 3020 3019 3017 3016 3013 3012 3014 3014 3013 3012 3012 3011 3011 3012 3012 3011 3009 3004 3000 2999 2996 2993 2991 2988 2990 2995 2991 2986 2983 2979 2977 2979 2981 2983 2984 2983 2982 2981 2980 2979
3020 3020 3021 3021 3020 3020 3018 3019 3021 3020 3022 3024 3021 3020 3021 3020 3020 3022 3022 3020 3022 3024 3022 3021 3024 3025 3023 3023 3022 3019 3019 3020 3018 3014 3012 3012 3014 3015 3016 3018 3018 3020 3022 3020 3019 3019 3011 3006 3009 3009 3005 3007 3006 3006 3009 3009 3006 3005 3005 3004 3005 3005 3005 3004 3000 2996 2997 2994 2984 2983 2986 2981 2982 2988 2985 2980 2977 2973 2972 2974 2974 2975 2976 2975 2974 2972 2970 2969
3014 3015 3016 3016 3015 3014 3014 3014 3015 3015 3017 3019 3016 3015 3016 3016 3016 3015 3015 3015 3016 3018 3017 3014 3015 3017 3016 3018 3017 3013 3014 3015 3011 3009 3008 3006 3008 3009 3008 3009 3010 3012 3016 3013 3011 3011 3004 2997 3001 3000 2995 2996 2998 2998 3000 2999 2996 2996 2996 2996 2997 2997 2996 2994 2990 2989 2991 2983 2973 2977 2982 2976 2974 2979 2977 2974 2971 2968 2968 2970 2969 2968 2968 2967 2966 2964 2961 2961
3009 3009 3011 3010 3008 3009 3010 3010 3010 3011 3012 3014 3012 3011 3011 3011 3011 3011 3012 3012 3011 3011 3011 3007 3007 3010 3010 3011 3010 3007 3009 3009 3004 3003 3003 3001 3002 3002 3000 3000 3001 3004 3007 3005 3004 3005 2998 2990 2993 2992 2985 2985 2988 2988 2990 2990 2987 2987 2988 2988 2988 2987 2986 2984 2981 2980 2980 2972 2969 2974 2973 2966 2968 2971 2969 2966 2965 2965 2966 2966 2964 2962 2959 2958 2959 2956 2953 2954
3004 3003 3004 3004 3003 3004 3006 3005 3006 3005 3006 3008 3006 3006 3007 3006 3006 3008 3009 3009 3007 3007 3007 3004 3003 3005 3004 3004 3003 3001 3002 3002 2998 2997 2999 2997 2996 2996 2994 2993 2995 2997 2998 2997 2997 2997 2992 2984 2985 2986 2979 2976 2980 2981 2980 2981 2979 2977 2978 2979 2980 2979 2976 2974 2973 2973 2971 2965 2963 2965 2961 2957 2960 2963 2961 2960 2960 2961 2962 2961 2959 2956 2953 2951 2951 2950 2948 2948
2998 2997 2999 2998 2997 2999 3000 2999 3000 2999 2999 3001 2999 2999 3002 3002 3003 3003 3002 3003 3003 3003 3003 3002 2999 2998 2998 2997 2998 2996 2996 2995 2991 2990 2993 2992 2990 2992 2991 2989 2991 2991 2990 2990 2989 2989 2986 2980 2981 2983 2974 2968 2974 2974 2970 2971 2970 2966 2968 2972 2972 2969 2964 2962 2963 2963 2962 2957 2955 2955 2951 2948 2951 2953 2953 2954 2955 2955 2955 2954 2952 2949 2947 2945 2945 2944 2943 2943
2992 2991 2993 2992 2991 2994 2994 2993 2994 2993 2992 2994 2994 2994 2996 2997 2997 2997 2995 2995 2997 2997 2997 2996 2994 2992 2991 2991 2992 2991 2989 2988 2986 2984 2985 2984 2984 2986 2986 2985 2987 2987 2985 2985 2983 2982 2981 2976 2976 2978 2968 2960 2967 2966 2962 2964 2959 2951 2957 2963 2960 2956 2954 2953 2953 2953 2952 2950 2947 2944 2940 2939 2942 2945 2945 2946 2947 2946 2946 2946 2944 2942 2940 2940 2939 2938 2937 2936